Погода в Стрельске

Украина / Ровненская область     51°26′01″N   26°38′52″E
темп.,
°C
ветер,
м/с
пор.,
м/с
влажн.,
%
обл.,
%
осадки,
мм/ч
давл.,
гПа
погр.,
м
27 октября, ср
ср2700:00+5юз3860100 0.0 1023149
03:00+4юз3765100 0.0 1022121
06:00+5юз3769100 0.0 1022138
09:00+6зюз3975100 0.0 1023230
12:00+11з47620 0.0 1023625
15:00+13зсз575015 0.0 10231295
18:00+9з3370100 0.0 102435
21:00+8зюз387872 0.0 1024133
28 октября, чт
чт2800:00+8зюз41281100 0.0 1024286
03:00+7зюз4118671 0.0 1023259
06:00+6зюз4118668 0.0 1023256
09:00+7з41184100 0.0 1024302
12:00+12з51070100 0.0 1024405
15:00+14зсз4767100 0.0 1024586
18:00+12зсз2474100 0.0 102486
21:00+12зсз2378100 0.0 102574
29 октября, пт
пт2900:00+11зсз228198 0.0 102633
03:00+11юз118274 0.0 102616
06:00+9ююз228737 0.0 102619
09:00+9ю22878 0.0 102754
12:00+15ююв356567 0.0 1026501
15:00+17ююв455899 0.0 10251022
18:00+13ююв357755 0.0 102577
21:00+11юв411839 0.0 1025221
30 октября, сб
сб3000:00+9юв412815 0.0 1026262
03:00+8юв411855 0.0 1026252
06:00+7ююв4139022 0.0 1025278
09:00+8ююв5138612 0.0 1026367
12:00+14ю6105943 0.0 1025646
15:00+16ю684737 0.0 1024964
18:00+12ююв47625 0.0 1024122
21:00+10ююв413655 0.0 1025298
31 октября, вс
вс3100:00+9ююв412675 0.0 1025302
03:00+8ююв412740 0.0 1025307
05:00+7ююв413790 0.0 1024329
08:00+7ююв515700 0.0 1024409
11:00+12ююв713520 0.0 1022660
14:00+14ююв711425 0.0 1020948
17:00+12ююв612480 0.0 1019399
20:00+10ююв615560 0.0 1019563